SCP
0 0 0 0 0 0 0 0 0 0 0 0 0 0 0 0 0 0 0 0 0 0 0 0 0 0 0 0 0 0 0 0 0 0 0 0 0 0 0 0 0 0 0 0
0 0 0 0 0 0 0 0 0 0 0 0 0 -0 0 0 0 0 0 0 0 0 0 0 0 0 0 0 0 0 0 0 0 0 0 0 0 0 0 0 0 0 0 0
0 0 0 0 0 0 0 0 0 0 0 0 -0 -0 0 0 0 0 0 0 0 0 0 0 0 0 0 0 0 0 0 0 0 0 0 0 0 0 0 0 0 0 0 0
0 0 0 0 0 0 0 0 0 0 0 0 0 0 0 0 0 0 0 0 0 0 0 0 0 0 0 0 0 0 0 0 0 0 0 0 0 0 0 0 0 0 0 0
0 0 0 0 0 0 0 0 0 0 0 0 0 0 0 0 0 0 0 0 0 0 0 0 0 0 0 0 0 0 0 0 0 0 0 0 0 0 0 0 0 0 0 0
0 0 0 0 0 0 0 0 0 0 0 0 0 0 0 0 0 0 0 0 0 0 0 0 0 0 0 0 0 0 0 0 0 0 0 0 0 0 0 0 0 0 0 0
0 0 0 0 0 0 0 0 0 0 0 0 0 0 0 0 0 0 0 0 0 0 0 0 0 0 0 0 0 0 0 0 0 0 0 0 0 0 0 0 0 -0 -0 -0
0 0 0 0 0 0 0 0 0 0 0 0 0 0 0 0 0 0 0 -0 0 0 0 0 0 0 0 0 0 0 0 0 0 0 0 0 0 0 0 0 0 0 0 0
0 0 0 0 0 0 0 0 0 0 0 0 0 0 0 0 0 0 0 0 0 0 0 0 0 0 0 0 0 0 0 0 0 0 0 0 0 0 0 0 0 0 0 0
0 0 0 0 0 0 0 0 0 0 0 0 0 0 0 0 0 0 0 0 0 0 -0 -0 0 0 0 0 0 0 0 0 0 0 0 0 0 0 0 0 0 0 0 0
0 0 0 0 0 0 0 0 0 0 0 0 0 0 0 0 0 0 0 0 0 -0 -0 0 0 0 0 0 0 0 0 0 0 0 0 0 0 0 0 0 0 0 0 0
0 0 0 0 0 0 0 0 0 0 0 0 0 0 0 0 0 0 0 0 0 -0 -0 0 0 0 0 0 0 0 0 0 0 0 0 0 0 0 0 0 0 0 0 0
0 0 0 0 0 0 0 0 0 0 0 0 0 0 0 0 0 0 0 0 0 0 -0 -0 0 0 0 0 0 0 0 0 0 0 0 0 0 0 0 0 0 0 0 0
0 0 0 0 0 0 0 0 0 0 0 0 0 0 0 0 0 0 0 0 0 0 0 0 0 0 0 0 0 0 0 0 0 0 0 0 0 0 0 0 0 0 0 0
0 0 0 0 0 0 0 0 0 0 0 0 0 0 0 0 0 0 0 0 0 0 0 0 0 0 0 0 0 0 0 0 0 0 0 0 0 0 0 0 0 0 0 0
0 0 0 0 0 0 0 0 0 0 0 0 0 0 0 0 0 0 0 0 0 0 0 0 0 0 0 0 0 0 0 0 0 0 0 0 0 0 0 0 0 0 0 0
0 0 0 0 0 0 0 0 0 0 0 0 0 0 0 0 0 0 0 0 0 0 0 0 0 0 0 0 0 0 0 0 0 0 0 0 0 0 0 0 0 0 0 0
0 0 0 0 0 0 0 0 0 0 0 0 0 0 0 0 0 0 0 0 0 0 0 0 0 0 0 0 0 0 0 0 0 0 0 0 0 0 0 0 0 0 0 0
0 0 0 0 0 0 0 0 0 0 0 0 0 0 0 0 0 0 0 0 0 0 0 0 0 0 0 0 0 0 0 0 0 0 0 0 0 0 0 0 0 0 0 0
0 0 0 0 0 0 0 0 0 0 0 0 0 0 0 0 0 0 0 0 0 0 0 0 0 0 0 0 0 0 0 0 0 0 0 0 0 0 0 0 0 0 0 0
0 0 0 0 0 0 0 0 0 0 0 0 0 0 0 0 0 0 0 0 0 0 0 0 0 0 0 0 0 0 0 0 0 0 0 0 0 0 0 0 0 0 0 0
0 0 0 0 0 0 0 0 0 0 0 0 0 0 0 0 0 0 0 0 0 0 0 0 0 0 0 0 0 0 0 0 0 0 0 0 0 0 0 0 0 0 0 0
0 0 0 0 0 0 0 0 0 0 0 0 0 0 0 0 0 0 0 0 0 0 0 0 0 0 0 0 0 0 0 0 0 0 0 0 0 0 0 0 0 0 0 0
0 0 0 0 0 0 0 0 0 0 0 0 0 0 0 0 0 0 0 0 0 0 0 0 0 0 0 0 0 0 0 0 0 0 0 0 0 0 0 0 0 0 0 0
0 0 0 0 0 0 0 0 0 0 0 0 0 0 0 0 0 0 0 0 0 0 0 0 0 0 0 0 0 0 0 0 0 0 0 0 0 0 0 0 0 0 0 0
0 0 0 0 0 0 0 0 0 0 0 0 0 0 0 0 0 0 0 0 0 0 0 0 0 0 0 0 0 0 0 0 0 0 0 0 0 0 0 0 0 0 0 0
Wind_Speed_500mb
4 9 5 11 7 5 6 6 10 3 7 10 19 31 30 27 37 41 43 44 43 38 30 31 30 31 30 26 22 19 16 13 11 9 7 7 9 12 15 17 20 22 24 26
8 5 7 2 1 2 2 5 7 3 2 6 21 39 44 39 48 46 47 45 42 38 37 35 33 34 33 29 25 21 17 15 12 11 9 8 10 13 15 18 20 22 24 27
2 11 5 2 7 6 2 7 5 7 14 10 22 18 4 3 21 38 37 41 41 43 44 41 40 40 37 32 29 24 20 16 14 11 9 9 10 16 15 17 19 23 25 28
14 6 4 8 6 5 5 3 2 7 9 8 8 13 23 6 8 14 27 34 42 44 46 45 44 42 40 36 33 29 25 20 16 12 9 11 8 5 10 14 19 22 24 27
6 7 7 5 6 7 8 1 2 5 8 8 13 9 8 6 8 18 6 18 31 41 47 48 47 44 40 39 38 34 29 25 20 14 11 9 7 8 10 14 17 20 22 25
10 5 7 5 6 3 12 5 4 4 6 6 7 6 3 3 8 12 11 11 16 30 42 45 44 42 41 40 40 37 33 29 23 17 12 8 5 8 11 14 15 18 20 24
7 5 6 2 8 6 7 7 3 4 4 6 5 8 15 19 11 9 20 15 10 18 36 44 48 46 44 45 45 42 38 33 28 22 15 10 4 4 7 10 12 14 18 23
14 7 8 2 5 4 11 4 5 8 6 6 4 13 3 5 9 15 14 10 9 11 28 43 49 48 46 48 47 45 42 39 34 28 21 14 7 1 5 9 13 16 19 23
8 7 5 5 2 5 9 8 6 4 4 5 13 10 9 12 7 9 12 7 6 7 20 36 45 49 47 51 52 49 46 43 37 33 27 19 13 6 5 10 15 19 22 25
9 9 1 5 3 5 5 3 6 5 5 9 11 10 16 12 7 11 18 19 11 5 11 28 41 45 44 46 48 47 46 43 40 37 32 25 19 13 10 12 17 21 25 26
2 2 6 2 15 14 8 7 5 2 4 6 11 7 5 10 3 7 9 13 13 8 6 17 35 44 47 47 47 49 47 45 44 40 37 31 25 20 16 15 19 25 29 29
8 3 8 5 5 5 5 8 14 9 12 4 6 16 9 9 5 8 4 10 9 16 22 17 29 47 49 50 51 51 50 48 44 40 40 38 33 27 22 20 23 28 31 32
12 8 7 5 3 0 10 15 12 1 3 14 10 11 4 7 8 8 10 13 13 25 18 21 25 43 55 56 59 58 54 51 46 43 42 41 39 35 29 26 28 31 33 32
7 3 6 7 7 10 10 16 30 13 9 14 28 45 15 18 17 15 7 16 32 17 20 21 23 32 48 53 60 60 55 52 47 44 41 41 43 41 34 31 33 34 36 33
6 8 1 5 6 5 5 10 26 28 31 21 36 39 22 13 4 17 31 25 29 25 18 19 22 25 37 47 51 57 53 49 46 42 42 45 45 42 38 37 36 37 39 36
0 6 5 6 6 13 10 17 22 38 31 43 45 49 35 39 30 18 18 24 24 20 19 20 22 22 29 48 57 58 54 48 45 45 48 46 46 42 42 40 39 40 39 39
13 13 8 7 3 6 18 37 41 27 20 37 30 44 19 9 7 12 22 23 22 20 19 21 18 17 21 37 48 50 48 44 44 46 47 44 41 42 42 42 41 40 39 41
12 8 6 0 1 13 2 3 15 37 28 37 29 29 8 7 11 9 4 11 14 12 14 15 12 8 12 23 34 41 43 43 40 38 38 38 41 43 44 42 42 42 44 47
2 8 7 7 12 18 19 14 15 17 14 39 42 38 30 11 6 8 13 12 9 7 10 5 5 5 11 18 25 29 32 33 35 36 38 40 41 41 42 44 46 47 52 57
4 4 6 6 10 14 9 9 13 8 15 9 30 22 22 17 12 8 8 8 4 5 3 1 8 14 17 19 22 27 29 29 30 31 34 37 40 43 47 49 49 51 55 60
9 8 24 18 15 15 8 22 18 12 5 11 16 16 21 7 7 4 5 4 3 4 3 7 12 16 18 19 22 24 25 27 29 32 36 40 44 48 51 54 55 59 63 66
22 24 13 15 16 23 31 18 14 5 10 17 19 20 18 11 6 4 5 6 6 7 7 8 11 13 14 16 18 22 25 28 32 35 39 44 48 51 55 60 62 65 69 71
12 10 15 24 16 6 41 8 17 15 18 14 14 11 7 7 6 6 7 9 10 10 11 11 14 17 20 22 24 29 34 37 41 44 47 51 54 56 57 61 65 66 65 67
12 6 5 6 10 13 26 20 18 17 18 17 13 10 6 8 8 8 7 9 11 14 16 17 20 22 26 28 32 36 41 44 48 51 52 53 55 56 56 56 56 56 54 53
4 24 13 8 7 5 16 28 26 20 15 14 12 10 7 9 9 8 8 9 12 16 19 21 24 27 30 34 38 42 45 48 50 51 51 52 53 53 54 51 49 48 46 45
18 11 12 10 11 4 9 29 27 23 19 14 11 10 8 8 8 8 10 13 16 19 21 24 28 31 34 36 39 41 42 44 46 46 47 48 50 50 52 55 58 52 55 55
Wind_Direction_500mb
121 207 149 59 27 8 13 319 303 87 47 300 268 277 275 230 225 235 232 227 224 222 214 202 201 205 200 194 188 180 173 167 157 131 98 76 63 54 45 40 36 32 32 31
172 149 99 127 78 128 184 273 288 146 51 274 299 286 274 257 244 235 237 233 229 222 211 202 201 203 202 200 194 188 181 174 163 152 135 110 74 58 48 40 35 33 32 31
149 99 126 199 131 149 16 295 329 305 314 238 294 269 202 151 257 241 241 243 236 227 217 210 203 206 203 202 200 194 189 181 170 154 130 93 66 46 34 36 35 34 31 30
71 97 144 157 113 312 217 35 290 291 307 324 346 291 312 342 266 244 250 235 233 227 222 216 207 203 203 204 203 199 195 190 182 168 129 110 122 73 44 39 34 31 28 26
107 125 133 161 47 332 57 121 346 305 281 312 172 259 106 54 29 39 13 251 243 230 222 217 212 206 201 203 205 203 200 197 191 179 153 127 97 66 47 37 31 25 22 21
86 67 14 73 97 44 135 148 186 241 287 255 79 273 296 106 29 344 327 325 273 234 221 217 213 204 197 202 206 206 206 204 200 192 175 144 98 49 37 28 21 16 15 13
140 79 98 175 127 155 230 210 197 222 214 268 104 256 274 316 5 317 305 312 309 233 216 212 208 202 197 203 208 210 210 210 207 202 193 179 147 63 39 22 13 8 2 1
175 197 172 75 333 323 195 290 258 239 234 355 154 238 228 114 315 336 301 294 301 242 216 210 208 205 201 208 210 213 212 212 212 209 206 201 200 189 15 6 356 351 348 348
145 124 125 58 340 330 152 220 35 62 90 268 241 222 234 135 120 21 15 17 347 269 217 211 210 207 204 210 215 218 216 214 215 213 214 214 222 245 315 342 345 340 336 335
158 112 320 102 196 129 289 18 162 177 246 260 246 262 253 187 108 67 49 32 18 317 236 213 210 212 210 213 216 217 218 218 219 218 219 222 232 249 284 318 330 330 326 322
113 266 128 245 206 183 167 211 213 320 211 247 284 260 55 147 152 111 56 32 22 7 286 230 220 214 209 211 212 217 215 216 217 220 224 229 238 250 269 298 316 322 320 315
177 44 158 168 86 355 347 281 208 217 176 210 305 271 191 181 224 190 143 20 41 9 334 283 227 213 213 210 210 212 214 218 222 226 231 235 241 251 265 287 303 312 315 310
183 193 141 192 184 289 218 191 236 353 47 202 243 252 162 170 216 211 252 321 330 316 294 270 238 218 213 211 212 213 215 218 219 225 233 239 245 251 261 276 290 302 308 303
170 181 244 257 78 110 194 204 205 194 206 238 223 262 210 244 253 259 285 295 315 321 306 289 263 234 220 216 214 213 216 218 221 228 237 244 248 250 257 271 284 295 301 298
210 214 118 279 234 192 176 178 196 206 217 221 258 254 253 269 307 294 305 315 310 311 315 289 275 253 226 218 215 214 216 221 227 234 241 247 250 250 255 267 279 290 294 296
114 165 142 257 193 222 238 227 212 216 232 250 257 273 278 299 286 278 304 307 303 311 317 312 295 276 240 222 217 215 220 229 238 244 246 248 248 249 254 265 276 284 288 292
164 151 162 246 22 310 267 206 207 213 212 222 238 246 266 239 273 323 315 314 312 312 316 318 311 292 256 231 220 223 229 238 245 244 244 244 245 248 255 265 274 279 284 288
147 170 186 139 144 243 341 112 201 221 241 219 251 252 173 243 287 303 335 327 339 334 332 335 325 286 250 226 224 230 235 239 236 231 232 237 243 248 257 264 270 276 283 288
8 165 174 217 211 309 246 189 178 176 258 219 229 247 250 248 238 153 4 19 22 346 346 345 274 228 218 216 224 225 221 217 215 219 228 238 245 252 258 265 271 277 282 286
102 354 238 153 228 241 56 133 132 148 273 183 214 230 217 168 193 119 25 26 349 352 344 245 211 215 213 204 202 211 212 214 222 229 239 248 255 261 267 272 277 282 285 289
167 193 218 206 242 277 119 139 136 180 302 116 140 134 139 151 50 114 298 325 273 267 245 234 227 224 218 214 214 220 226 233 240 246 253 259 265 271 276 280 285 288 289 290
171 171 191 198 221 256 140 129 199 84 70 118 113 112 111 96 93 139 172 205 222 238 245 247 240 235 234 236 241 247 252 257 263 268 272 275 278 283 286 288 288 289 290 292
214 222 177 194 206 114 185 78 181 159 153 146 143 155 150 134 163 188 242 242 240 245 252 257 260 259 263 270 273 276 277 280 282 284 287 289 290 291 291 292 292 292 293 292
221 182 219 162 180 204 188 198 181 165 171 172 188 218 226 203 219 221 238 245 254 260 263 271 279 283 287 290 292 292 293 294 296 297 296 295 294 293 294 295 296 296 297 296
106 153 171 247 195 126 213 214 216 202 204 219 239 246 217 209 197 206 227 255 270 280 286 287 288 290 294 297 297 296 297 297 296 296 297 298 298 298 298 297 298 298 297 296
186 172 194 233 150 191 127 198 203 208 210 219 224 215 200 199 214 234 257 272 281 286 291 293 295 297 298 299 300 301 303 303 303 303 304 304 304 304 303 303 299 297 298 298
Wind_Speed_850mb
4 9 5 11 7 5 6 6 10 3 7 10 19 31 30 27 37 41 43 44 43 38 30 31 30 31 30 26 22 19 16 13 11 9 7 7 9 12 15 17 20 22 24 26
8 5 7 2 1 2 2 5 7 3 2 6 21 39 44 39 48 46 47 45 42 38 37 35 33 34 33 29 25 21 17 15 12 11 9 8 10 13 15 18 20 22 24 27
2 11 5 2 7 6 2 7 5 7 14 10 22 18 4 3 21 38 37 41 41 43 44 41 40 40 37 32 29 24 20 16 14 11 9 9 10 16 15 17 19 23 25 28
14 6 4 8 6 5 5 3 2 7 9 8 8 13 23 6 8 14 27 34 42 44 46 45 44 42 40 36 33 29 25 20 16 12 9 11 8 5 10 14 19 22 24 27
6 7 7 5 6 7 8 1 2 5 8 8 13 9 8 6 8 18 6 18 31 41 47 48 47 44 40 39 38 34 29 25 20 14 11 9 7 8 10 14 17 20 22 25
10 5 7 5 6 3 12 5 4 4 6 6 7 6 3 3 8 12 11 11 16 30 42 45 44 42 41 40 40 37 33 29 23 17 12 8 5 8 11 14 15 18 20 24
7 5 6 2 8 6 7 7 3 4 4 6 5 8 15 19 11 9 20 15 10 18 36 44 48 46 44 45 45 42 38 33 28 22 15 10 4 4 7 10 12 14 18 23
14 7 8 2 5 4 11 4 5 8 6 6 4 13 3 5 9 15 14 10 9 11 28 43 49 48 46 48 47 45 42 39 34 28 21 14 7 1 5 9 13 16 19 23
8 7 5 5 2 5 9 8 6 4 4 5 13 10 9 12 7 9 12 7 6 7 20 36 45 49 47 51 52 49 46 43 37 33 27 19 13 6 5 10 15 19 22 25
9 9 1 5 3 5 5 3 6 5 5 9 11 10 16 12 7 11 18 19 11 5 11 28 41 45 44 46 48 47 46 43 40 37 32 25 19 13 10 12 17 21 25 26
2 2 6 2 15 14 8 7 5 2 4 6 11 7 5 10 3 7 9 13 13 8 6 17 35 44 47 47 47 49 47 45 44 40 37 31 25 20 16 15 19 25 29 29
8 3 8 5 5 5 5 8 14 9 12 4 6 16 9 9 5 8 4 10 9 16 22 17 29 47 49 50 51 51 50 48 44 40 40 38 33 27 22 20 23 28 31 32
12 8 7 5 3 0 10 15 12 1 3 14 10 11 4 7 8 8 10 13 13 25 18 21 25 43 55 56 59 58 54 51 46 43 42 41 39 35 29 26 28 31 33 32
7 3 6 7 7 10 10 16 30 13 9 14 28 45 15 18 17 15 7 16 32 17 20 21 23 32 48 53 60 60 55 52 47 44 41 41 43 41 34 31 33 34 36 33
6 8 1 5 6 5 5 10 26 28 31 21 36 39 22 13 4 17 31 25 29 25 18 19 22 25 37 47 51 57 53 49 46 42 42 45 45 42 38 37 36 37 39 36
0 6 5 6 6 13 10 17 22 38 31 43 45 49 35 39 30 18 18 24 24 20 19 20 22 22 29 48 57 58 54 48 45 45 48 46 46 42 42 40 39 40 39 39
13 13 8 7 3 6 18 37 41 27 20 37 30 44 19 9 7 12 22 23 22 20 19 21 18 17 21 37 48 50 48 44 44 46 47 44 41 42 42 42 41 40 39 41
12 8 6 0 1 13 2 3 15 37 28 37 29 29 8 7 11 9 4 11 14 12 14 15 12 8 12 23 34 41 43 43 40 38 38 38 41 43 44 42 42 42 44 47
2 8 7 7 12 18 19 14 15 17 14 39 42 38 30 11 6 8 13 12 9 7 10 5 5 5 11 18 25 29 32 33 35 36 38 40 41 41 42 44 46 47 52 57
4 4 6 6 10 14 9 9 13 8 15 9 30 22 22 17 12 8 8 8 4 5 3 1 8 14 17 19 22 27 29 29 30 31 34 37 40 43 47 49 49 51 55 60
9 8 24 18 15 15 8 22 18 12 5 11 16 16 21 7 7 4 5 4 3 4 3 7 12 16 18 19 22 24 25 27 29 32 36 40 44 48 51 54 55 59 63 66
22 24 13 15 16 23 31 18 14 5 10 17 19 20 18 11 6 4 5 6 6 7 7 8 11 13 14 16 18 22 25 28 32 35 39 44 48 51 55 60 62 65 69 71
12 10 15 24 16 6 41 8 17 15 18 14 14 11 7 7 6 6 7 9 10 10 11 11 14 17 20 22 24 29 34 37 41 44 47 51 54 56 57 61 65 66 65 67
12 6 5 6 10 13 26 20 18 17 18 17 13 10 6 8 8 8 7 9 11 14 16 17 20 22 26 28 32 36 41 44 48 51 52 53 55 56 56 56 56 56 54 53
4 24 13 8 7 5 16 28 26 20 15 14 12 10 7 9 9 8 8 9 12 16 19 21 24 27 30 34 38 42 45 48 50 51 51 52 53 53 54 51 49 48 46 45
18 11 12 10 11 4 9 29 27 23 19 14 11 10 8 8 8 8 10 13 16 19 21 24 28 31 34 36 39 41 42 44 46 46 47 48 50 50 52 55 58 52 55 55
Wind_Direction_850mb
121 207 149 59 27 8 13 319 303 87 47 300 268 277 275 230 225 235 232 227 224 222 214 202 201 205 200 194 188 180 173 167 157 131 98 76 63 54 45 40 36 32 32 31
172 149 99 127 78 128 184 273 288 146 51 274 299 286 274 257 244 235 237 233 229 222 211 202 201 203 202 200 194 188 181 174 163 152 135 110 74 58 48 40 35 33 32 31
149 99 126 199 131 149 16 295 329 305 314 238 294 269 202 151 257 241 241 243 236 227 217 210 203 206 203 202 200 194 189 181 170 154 130 93 66 46 34 36 35 34 31 30
71 97 144 157 113 312 217 35 290 291 307 324 346 291 312 342 266 244 250 235 233 227 222 216 207 203 203 204 203 199 195 190 182 168 129 110 122 73 44 39 34 31 28 26
107 125 133 161 47 332 57 121 346 305 281 312 172 259 106 54 29 39 13 251 243 230 222 217 212 206 201 203 205 203 200 197 191 179 153 127 97 66 47 37 31 25 22 21
86 67 14 73 97 44 135 148 186 241 287 255 79 273 296 106 29 344 327 325 273 234 221 217 213 204 197 202 206 206 206 204 200 192 175 144 98 49 37 28 21 16 15 13
140 79 98 175 127 155 230 210 197 222 214 268 104 256 274 316 5 317 305 312 309 233 216 212 208 202 197 203 208 210 210 210 207 202 193 179 147 63 39 22 13 8 2 1
175 197 172 75 333 323 195 290 258 239 234 355 154 238 228 114 315 336 301 294 301 242 216 210 208 205 201 208 210 213 212 212 212 209 206 201 200 189 15 6 356 351 348 348
145 124 125 58 340 330 152 220 35 62 90 268 241 222 234 135 120 21 15 17 347 269 217 211 210 207 204 210 215 218 216 214 215 213 214 214 222 245 315 342 345 340 336 335
158 112 320 102 196 129 289 18 162 177 246 260 246 262 253 187 108 67 49 32 18 317 236 213 210 212 210 213 216 217 218 218 219 218 219 222 232 249 284 318 330 330 326 322
113 266 128 245 206 183 167 211 213 320 211 247 284 260 55 147 152 111 56 32 22 7 286 230 220 214 209 211 212 217 215 216 217 220 224 229 238 250 269 298 316 322 320 315
177 44 158 168 86 355 347 281 208 217 176 210 305 271 191 181 224 190 143 20 41 9 334 283 227 213 213 210 210 212 214 218 222 226 231 235 241 251 265 287 303 312 315 310
183 193 141 192 184 289 218 191 236 353 47 202 243 252 162 170 216 211 252 321 330 316 294 270 238 218 213 211 212 213 215 218 219 225 233 239 245 251 261 276 290 302 308 303
170 181 244 257 78 110 194 204 205 194 206 238 223 262 210 244 253 259 285 295 315 321 306 289 263 234 220 216 214 213 216 218 221 228 237 244 248 250 257 271 284 295 301 298
210 214 118 279 234 192 176 178 196 206 217 221 258 254 253 269 307 294 305 315 310 311 315 289 275 253 226 218 215 214 216 221 227 234 241 247 250 250 255 267 279 290 294 296
114 165 142 257 193 222 238 227 212 216 232 250 257 273 278 299 286 278 304 307 303 311 317 312 295 276 240 222 217 215 220 229 238 244 246 248 248 249 254 265 276 284 288 292
164 151 162 246 22 310 267 206 207 213 212 222 238 246 266 239 273 323 315 314 312 312 316 318 311 292 256 231 220 223 229 238 245 244 244 244 245 248 255 265 274 279 284 288
147 170 186 139 144 243 341 112 201 221 241 219 251 252 173 243 287 303 335 327 339 334 332 335 325 286 250 226 224 230 235 239 236 231 232 237 243 248 257 264 270 276 283 288
8 165 174 217 211 309 246 189 178 176 258 219 229 247 250 248 238 153 4 19 22 346 346 345 274 228 218 216 224 225 221 217 215 219 228 238 245 252 258 265 271 277 282 286
102 354 238 153 228 241 56 133 132 148 273 183 214 230 217 168 193 119 25 26 349 352 344 245 211 215 213 204 202 211 212 214 222 229 239 248 255 261 267 272 277 282 285 289
167 193 218 206 242 277 119 139 136 180 302 116 140 134 139 151 50 114 298 325 273 267 245 234 227 224 218 214 214 220 226 233 240 246 253 259 265 271 276 280 285 288 289 290
171 171 191 198 221 256 140 129 199 84 70 118 113 112 111 96 93 139 172 205 222 238 245 247 240 235 234 236 241 247 252 257 263 268 272 275 278 283 286 288 288 289 290 292
214 222 177 194 206 114 185 78 181 159 153 146 143 155 150 134 163 188 242 242 240 245 252 257 260 259 263 270 273 276 277 280 282 284 287 289 290 291 291 292 292 292 293 292
221 182 219 162 180 204 188 198 181 165 171 172 188 218 226 203 219 221 238 245 254 260 263 271 279 283 287 290 292 292 293 294 296 297 296 295 294 293 294 295 296 296 297 296
106 153 171 247 195 126 213 214 216 202 204 219 239 246 217 209 197 206 227 255 270 280 286 287 288 290 294 297 297 296 297 297 296 296 297 298 298 298 298 297 298 298 297 296
186 172 194 233 150 191 127 198 203 208 210 219 224 215 200 199 214 234 257 272 281 286 291 293 295 297 298 299 300 301 303 303 303 303 304 304 304 304 303 303 299 297 298 298